Regional Weather Roundup
Issued by NWS

Home | Current Version | Previous Version | Text Only | Print | Product List | Glossary On
Versions: 1 2 3 4 5 6 7 8 9 10 11 12 13 14 15 16 17 18 19 20 21 22 23 24 25 26 27 28 29 30 31 32 33 34 35 36 37 38 39 40 41 42 43 44 45 46 47 48 49 50
000
ASUS43 KLOT 212203
RWRIL

ILLINOIS REGIONAL WEATHER ROUNDUP
NATIONAL WEATHER SERVICE CHICAGO/ROMEOVILLE IL
400 PM CST TUE FEB 21 2017

NOTE: "FAIR" INDICATES FEW OR NO CLOUDS BELOW 12,000 FEET WITH NO
SIGNIFICANT WEATHER AND/OR OBSTRUCTIONS TO VISIBILITY.

* THESE STATIONS ARE NOT UNDER NWS QUALITY CONTROL. THEY ALSO MAY NOT
  REPORT WEATHER SUCH AS PRECIPITATION OR FOG.

ILZ001-002-007-009-015-016-024-212300-
NORTHWEST ILLINOIS

CITY           SKY/WX    TMP DP  RH WIND       PRES   REMARKS
MOLINE         SUNNY     69  44  40 CALM      29.88F
STERLING*      SUNNY     64  46  52 SW5       29.91F
SAVANNA*       SUNNY     63  42  46 S5        29.90S
$$

ILZ003-004-008-010-011-017-018-212300-
NORTH CENTRAL ILLINOIS

CITY           SKY/WX    TMP DP  RH WIND       PRES   REMARKS
ROCKFORD       MOSUNNY   66  41  40 CALM      29.91F
FREEPORT*      SUNNY     62  39  43 W6        29.91F
ROCHELLE*      SUNNY     63  47  55 SW5       29.91S
DE KALB*       MOSUNNY   64  50  61 W5        29.91S
PERU*          MOSUNNY   64  54  70 W7        29.90F
$$

ILZ005-006-012>014-019>023-212300-
NORTHEAST ILLINOIS

CITY           SKY/WX    TMP DP  RH WIND       PRES   REMARKS
CHICAGO-OHARE  PTSUNNY   65  51  60 W6        29.89F
CHICAGO-MIDWAY PTSUNNY   65  53  65 W7        29.90S
AURORA         MOSUNNY   64  54  69 SW7       29.91S
LANSING*       PTSUNNY   65  57  77 NW7       29.91S
JOLIET*        PTSUNNY   67  57  70 W3        29.90F
WAUKEGAN       SUNNY     60  49  66 SE6       29.89S
DUPAGE AIRPORT MOSUNNY   64  53  67 SW9       29.90S
KANKAKEE*      CLOUDY    64  54  68 CALM      29.92S
WHEELING       MOSUNNY   64  50  60 SW8       29.90S
MORRIS*        CLOUDY    65  55  68 CALM      29.89F
ROMEOVILLE*    PTSUNNY   64  58  80 NW8       29.90F
NORTHERLY ISL    N/A     63  50  62 W5          N/A
$$

LMZ740>746-212300-
SOUTHERN LAKE MICHIGAN

STATION/POSITION SKY/WX   TEMP    WIND        PRES    VSBY  WAVE
                          AIR SEA DIR/SP/G                  HT/PER
                          (F)     (DEG/KT/KT) (MB)    (MI)  (FT/S)
HARRISON CRIB              62     270/ 10/ 11   N/A
BURNHAM HARBOR             62     270/ 11       N/A
CALUMET HARBOR             53      40/  4/  5 1012.2R
BURNS HARBOR               50      80/  4/  5 1013.5R
MICHIGAN CITY              50      30/  5/  5   N/A
$$

ILZ025>027-034>036-040-047-049-050-058-095>099-212300-
WEST-CENTRAL ILLINOIS

CITY           SKY/WX    TMP DP  RH WIND       PRES   REMARKS
QUINCY         MOSUNNY   66  57  72 S3        29.88F
GALESBURG*     MOSUNNY   64  55  72 S6        29.90S
MACOMB*        SUNNY     65  57  73 CALM      29.92F
JACKSONVILLE*  CLOUDY    63  58  83 S3        29.89F
PITTSFIELD*    MOSUNNY   66  57  72 E5        29.90F
$$

ILZ028>032-037-038-041>044-048-051>054-059>061-212300-
CENTRAL ILLINOIS

CITY           SKY/WX    TMP DP  RH WIND       PRES   REMARKS
PONTIAC        MOSUNNY   66  58  73 S6        29.91F
BLOOMINGTON    CLOUDY    64  55  72 S5        29.92S
DECATUR        CLOUDY    62  55  77 E3        29.90F
PEORIA         CLOUDY    66  56  70 SW5       29.89F
LACON*         PTSUNNY   66  56  71 S6        29.89F
LINCOLN*       CLOUDY    65  58  80 SE3       29.90F
SPRINGFIELD    CLOUDY    64  57  78 CALM      29.90F
TAYLORVILLE    CLOUDY    62  57  83 CALM      29.91S
$$

ILZ033-039-045-046-055>057-062-063-212300-
EAST-CENTRAL ILLINOIS

CITY           SKY/WX    TMP DP  RH WIND       PRES   REMARKS
CHAMPAIGN      CLOUDY    62  54  74 SE3       29.91F
RANTOUL*       CLOUDY    65  57  73 SE5       29.91S
MATTOON        MOSUNNY   62  54  74 CALM      29.91S
PARIS*         CLOUDY    61  53  74 CALM      29.92F
$$

ILZ079-100>102-212300-
SOUTHWEST ILLINOIS

CITY           SKY/WX    TMP DP  RH WIND       PRES   REMARKS
BELLEVILLE     CLOUDY    65  56  72 SE5       29.89R
CAHOKIA*       CLOUDY    66  54  65 SE3       29.89R
SPARTA*        CLOUDY    62  54  74 NE3       29.91S
$$

ILZ064>066-069>071-074>076-080>082-084>086-088>090-092>094-212300-
SOUTH-CENTRAL ILLINOIS

CITY           SKY/WX    TMP DP  RH WIND       PRES   REMARKS
CARBONDALE     PTSUNNY   64  55  72 SE12      29.88F
CAIRO*         CLOUDY    62  57  83 SE7       29.89S
EFFINGHAM*     CLOUDY    61  55  80 SE5       29.93R
MT. VERNON     CLOUDY    61  54  77 N9        29.91R
CENTRALIA*     CLOUDY    62  56  80 SE9       29.91R
SALEM*         CLOUDY    62  54  74 SE5       29.90S
METROPOLIS*    CLOUDY    63  56  78 CALM      29.91S
$$

ILZ067-068-072-073-078-083-087-091-212300-
SOUTHEAST ILLINOIS

CITY           SKY/WX    TMP DP  RH WIND       PRES   REMARKS
LAWRENCEVILLE  CLOUDY    59  56  89 NE6       29.93S
FLORA*         PTSUNNY   62  56  80 NE5       29.93S
FAIRFIELD*     CLOUDY    62  54  75 NW5       29.90R
HARRISBURG*    PTSUNNY   63  56  79 SE6       29.91S
ROBINSON*      CLOUDY    60  54  81 S8        29.94S
CARMI*         CLOUDY    63  55  76 SE5       29.90S
$$

ABBREVIATIONS USED IN REMARKS
   TC - TEMPERATURE IN CELSIUS
  WCI - WIND CHILL INDEX
   HX - HEAT INDEX
  VSB - VISIBILITY
$$





USA.gov is the U.S. government's official web portal to all federal, state and local government web resources and services.